Date String (YYYY-MM-DD hh:mm:ss) UTC,Instrument flags,absolute air pressure of the measurement (hPa),sample flow rate (lpm),inlet stack bypass flow (lpm),air temperature of the measurement (°C),ambient temperature measured by the external sensor (°C),aerosol sample conditioner tube jacket temperature (°C),OPC LED temperature (°C),internal box temperature (°C),relative humidity of the measurement (%),span deviation,mass concentration of particles derived from Lorenz-Mie calculation of OPC scattering (μg/m³),mass concentration of particles derived from Lorenz-Mie calculation of OPC scattering (μg/m³),mass concentration of particles derived from Lorenz-Mie calculation of OPC scattering (μg/m³)
DateTimeUTC,F1_M11,P_M11,Q1_M11,Q2_M11,T1_M11,T2_M11,T3_M11,T4_M11,T5_M11,U1_M11,ZSPAN_M11,X0_M11,X2_M11,X1_M11
2024-04-09 12:00:00,SystemResetWarning,0828.6,5.00,000.00,020.2,019.6,000.0,028.7,021.9,014.3,0000.0,0009.68,0002.59,0001.77
2024-04-09 12:01:00,SystemResetWarning,0828.6,5.00,000.00,020.2,019.6,000.0,028.7,021.9,014.3,0000.0,0009.33,0002.55,0001.76
2024-04-09 12:02:00,SystemResetWarning,0828.6,5.01,000.00,020.2,019.6,000.0,028.7,021.9,014.3,0000.0,0008.89,0002.50,0001.74
2024-04-09 12:03:00,SystemResetWarning,0828.5,5.00,000.00,020.2,019.5,000.0,028.7,021.9,014.3,0000.0,0008.75,0002.49,0001.72
2024-04-09 12:04:00,SystemResetWarning,0828.6,5.00,000.00,020.2,019.5,000.0,028.7,021.8,014.3,0000.0,0008.80,0002.45,0001.71
2024-04-09 12:05:00,SystemResetWarning,0828.5,4.99,000.00,020.1,019.5,000.0,028.6,021.8,014.3,0000.0,0008.51,0002.43,0001.71
2024-04-09 12:06:00,SystemResetWarning,0828.6,5.00,000.00,020.1,019.5,000.0,028.6,021.8,014.3,0000.0,0008.78,0002.48,0001.70
2024-04-09 12:07:00,SystemResetWarning,0828.6,5.00,000.00,020.1,019.5,000.0,028.6,021.9,014.4,0000.0,0008.45,0002.48,0001.70
2024-04-09 12:08:00,SystemResetWarning,0828.6,4.99,000.00,020.1,019.5,000.0,028.6,021.8,014.4,0000.0,0008.63,0002.48,0001.71
2024-04-09 12:09:00,SystemResetWarning,0828.7,5.00,000.00,020.1,019.5,000.0,028.6,021.8,014.5,0000.0,0008.36,0002.44,0001.70
2024-04-09 12:10:00,SystemResetWarning,0828.6,5.01,000.00,020.1,019.5,000.0,028.6,021.8,014.5,0000.0,0009.04,0002.49,0001.70
2024-04-09 12:11:00,SystemResetWarning,0828.6,5.01,000.00,020.1,019.5,000.0,028.6,021.8,014.5,0000.0,0008.95,0002.57,0001.70
2024-04-09 12:12:00,SystemResetWarning,0828.6,5.00,000.00,020.1,019.5,000.0,028.6,021.8,014.4,0000.0,0009.17,0002.58,0001.70
2024-04-09 12:13:00,SystemResetWarning,0828.6,4.99,000.00,020.1,019.5,000.0,028.6,021.8,014.5,0000.0,0009.50,0002.60,0001.70
2024-04-09 12:14:00,SystemResetWarning,0828.6,5.00,000.00,020.1,019.5,000.0,028.6,021.8,014.6,0000.0,0009.43,0002.62,0001.71
2024-04-09 12:15:00,SystemResetWarning,0828.6,4.99,000.00,020.0,019.4,000.0,028.6,021.7,014.7,0000.0,0009.47,0002.61,0001.72
2024-04-09 12:16:00,SystemResetWarning,0828.6,5.01,000.00,020.0,019.4,000.0,028.6,021.7,014.7,0000.0,0009.89,0002.64,0001.72
2024-04-09 12:17:00,SystemResetWarning,0828.6,5.01,000.00,020.0,019.4,000.0,028.6,021.7,014.7,0000.0,0009.62,0002.59,0001.72
2024-04-09 12:18:00,SystemResetWarning,0828.6,5.00,000.00,020.0,019.4,000.0,028.5,021.7,014.7,0000.0,0009.78,0002.62,0001.73
2024-04-09 12:19:00,SystemResetWarning,0828.6,5.00,000.00,020.0,019.4,000.0,028.5,021.7,014.6,0000.0,0009.33,0002.64,0001.71
2024-04-09 12:20:00,SystemResetWarning,0828.6,5.00,000.00,020.0,019.4,000.0,028.5,021.7,014.6,0000.0,0009.10,0002.61,0001.72
2024-04-09 12:21:00,SystemResetWarning,0828.6,5.00,000.00,020.0,019.4,000.0,028.5,021.7,014.3,0000.0,0008.63,0002.61,0001.71
2024-04-09 12:22:00,SystemResetWarning,0828.6,5.00,000.00,020.0,019.4,000.0,028.5,021.7,014.4,0000.0,0007.75,0002.55,0001.71
2024-04-09 12:23:00,SystemResetWarning,0828.6,5.00,000.00,020.0,019.4,000.0,028.5,021.7,014.7,0000.0,0008.10,0002.54,0001.71
2024-04-09 12:24:00,SystemResetWarning,0828.6,5.01,000.00,019.9,019.3,000.0,028.5,021.6,014.9,0000.0,0007.55,0002.53,0001.70
2024-04-09 12:25:00,SystemResetWarning,0828.6,5.01,000.00,019.9,019.3,000.0,028.5,021.6,015.1,0000.0,0007.71,0002.55,0001.71
2024-04-09 12:26:00,SystemResetWarning,0828.6,5.00,000.00,019.9,019.3,000.0,028.5,021.6,015.1,0000.0,0008.66,0002.54,0001.70
2024-04-09 12:27:00,SystemResetWarning,0828.6,5.00,000.00,019.9,019.3,000.0,028.5,021.6,014.8,0000.0,0008.39,0002.51,0001.72
2024-04-09 12:28:00,SystemResetWarning,0828.6,4.99,000.00,019.9,019.3,000.0,028.4,021.6,014.6,0000.0,0008.53,0002.55,0001.73
2024-04-09 12:29:00,SystemResetWarning,0828.6,5.00,000.00,019.9,019.3,000.0,028.4,021.6,014.6,0000.0,0008.51,0002.59,0001.74
2024-04-09 12:30:00,SystemResetWarning,0828.6,5.01,000.00,019.9,019.3,000.0,028.4,021.6,014.7,0000.0,0008.47,0002.58,0001.76
2024-04-09 12:31:00,SystemResetWarning,0828.6,5.00,000.00,019.9,019.3,000.0,028.4,021.6,014.9,0000.0,0008.45,0002.58,0001.77
2024-04-09 12:32:00,SystemResetWarning,0828.6,5.01,000.00,019.9,019.3,000.0,028.4,021.6,014.9,0000.0,0008.40,0002.59,0001.76
2024-04-09 12:33:00,SystemResetWarning,0828.6,5.00,000.00,019.9,019.3,000.0,028.4,021.6,015.0,0000.0,0008.81,0002.63,0001.77
2024-04-09 12:34:00,SystemResetWarning,0828.6,5.00,000.00,019.9,019.3,000.0,028.4,021.6,015.0,0000.0,0008.30,0002.61,0001.77
2024-04-09 12:35:00,SystemResetWarning,0828.6,5.00,000.00,019.9,019.3,000.0,028.4,021.6,015.0,0000.0,0008.22,0002.58,0001.78
2024-04-09 12:36:00,SystemResetWarning,0828.6,5.00,000.00,019.9,019.3,000.0,028.4,021.5,015.9,0000.0,0008.42,0002.58,0001.79
2024-04-09 12:37:00,SystemResetWarning,0828.6,5.00,000.00,019.9,019.3,000.0,028.4,021.5,016.4,0000.0,0008.01,0002.59,0001.79
2024-04-09 12:38:00,SystemResetWarning,0828.6,5.00,000.00,019.8,019.3,000.0,028.3,021.5,016.2,0000.0,0007.89,0002.59,0001.77
2024-04-09 12:39:00,SystemResetWarning,0828.6,5.00,000.00,019.8,019.3,000.0,028.3,021.6,016.1,0000.0,0008.04,0002.52,0001.73
2024-04-09 12:40:00,SystemResetWarning,0828.6,5.00,000.00,019.8,019.3,000.0,028.3,021.6,016.2,0000.0,0008.92,0002.42,0001.72
2024-04-09 12:41:00,SystemResetWarning,0828.7,5.00,000.00,019.8,019.3,000.0,028.3,021.5,016.2,0000.0,0009.00,0002.40,0001.71
2024-04-09 12:42:00,SystemResetWarning,0828.7,5.00,000.00,019.8,019.2,000.0,028.3,021.5,016.2,0000.0,0009.04,0002.38,0001.70
2024-04-09 12:43:00,SystemResetWarning,0828.7,5.00,000.00,019.8,019.2,000.0,028.3,021.5,016.3,0000.0,0009.44,0002.29,0001.68
2024-04-09 12:44:00,SystemResetWarning,0828.7,5.00,000.00,019.8,019.2,000.0,028.3,021.5,016.1,0000.0,0009.10,0002.26,0001.67
2024-04-09 12:45:00,SystemResetWarning,0828.6,4.99,000.00,019.8,019.2,000.0,028.3,021.5,016.1,0000.0,0009.37,0002.23,0001.65
2024-04-09 12:46:00,SystemResetWarning,0828.7,5.00,000.00,019.8,019.2,000.0,028.3,021.5,016.0,0000.0,0010.41,0002.27,0001.65
2024-04-09 12:47:00,SystemResetWarning,0828.6,5.00,000.00,019.8,019.2,000.0,028.3,021.4,015.9,0000.0,0010.27,0002.22,0001.64
2024-04-09 12:48:00,SystemResetWarning,0828.7,5.00,000.00,019.8,019.2,000.0,028.3,021.4,016.0,0000.0,0009.52,0002.19,0001.63
2024-04-09 12:49:00,SystemResetWarning,0828.7,5.00,000.00,019.7,019.2,000.0,028.3,021.4,016.0,0000.0,0009.56,0002.20,0001.63
2024-04-09 12:50:00,SystemResetWarning,0828.6,5.01,000.00,019.7,019.2,000.0,028.2,021.4,016.0,0000.0,0009.00,0002.21,0001.63
2024-04-09 12:51:00,SystemResetWarning,0828.7,5.00,000.00,019.7,019.2,000.0,028.2,021.4,016.0,0000.0,0007.71,0002.26,0001.64
2024-04-09 12:52:00,SystemResetWarning,0828.7,5.00,000.00,019.7,019.2,000.0,028.2,021.4,016.0,0000.0,0007.58,0002.25,0001.63
2024-04-09 12:53:00,SystemResetWarning,0828.7,4.99,000.00,019.7,019.1,000.0,028.2,021.4,016.0,0000.0,0007.64,0002.28,0001.63
2024-04-09 12:54:00,SystemResetWarning,0828.7,5.00,000.00,019.7,019.1,000.0,028.2,021.4,016.0,0000.0,0007.50,0002.38,0001.65
2024-04-09 12:55:00,SystemResetWarning,0828.7,5.00,000.00,019.7,019.1,000.0,028.2,021.4,016.1,0000.0,0007.59,0002.39,0001.66
2024-04-09 12:56:00,SystemResetWarning,0828.7,4.99,000.00,019.7,019.1,000.0,028.2,021.4,016.2,0000.0,0007.32,0002.40,0001.64
2024-04-09 12:57:00,SystemResetWarning,0828.7,5.00,000.00,019.7,019.1,000.0,028.2,021.4,016.2,0000.0,0005.77,0002.40,0001.63
2024-04-09 12:58:00,SystemResetWarning,0828.7,4.99,000.00,019.7,019.1,000.0,028.2,021.3,016.2,0000.0,0005.31,0002.42,0001.63
2024-04-09 12:59:00,SystemResetWarning,0828.7,5.00,000.00,019.7,019.1,000.0,028.2,021.3,016.2,0000.0,0005.34,0002.40,0001.62
